Preview of NWS' New Version of Forecast
This preview is not operational and should not be used for support decisions.

Regional Weather Roundup (RWR)

Issued by National Weather Service (NWS)

                            
000
ASUS42 KTBW 210015
RWRFL 
FLORIDA REGIONAL WEATHER ROUNDUP
NATIONAL WEATHER SERVICE TAMPA BAY RUSKIN FL
800 PM EDT SAT APR 20 2019

NOTE: "FAIR" INDICATES FEW OR NO CLOUDS BELOW 12,000 FEET WITH NO
SIGNIFICANT WEATHER AND/OR OBSTRUCTIONS TO VISIBILITY.

FLZ001>010-012>015-112-114-115-210100-
PANHANDLE FLORIDA
  
CITY           SKY/WX    TMP DP  RH WIND       PRES   REMARKS
PENSACOLA      FAIR      68  29  23 W9        29.94R                  
PENSACOLA NAS  FAIR      67  33  28 VRB3      29.94R                  
MILTON NAS     FAIR      64  34  32 NW8       29.94R                  
CRESTVIEW      FAIR      66  29  24 NW9       29.94R                  
DUKE FIELD     FAIR      67  29  24 W10       29.93R                  
VALPARAISO     FAIR      68  28  22 NW15      29.93R                  
PANAMA CITY    FAIR      66  30  26 W8        29.91R                  
TYNDALL AFB    FAIR      65  40  39 W17       29.92R                  
APALACHICOLA   FAIR      62  40  44 W9        29.94R                  

STATION/POSITION SKY/WX   TEMP    WIND        PRES    WAVE   SWELL
                          AIR SEA DIR/SP/G            HT/PER HT/PER
                          (F)     (DEG/KT/KT) (MB)    (FT/S) (FT/S)
30.1N   87.6W                                 1014.7R   4/ 5   2/ 7
29.2N   88.2W                     280/ 19/ 23 1016.2
PANAMA CITY BEAC           67 69  260/ 21/ 25 1013.4R
TOWER C          NOT AVBL

$$
FLZ011-016>038-118-127-128-134-139-239-210100-
NORTH FLORIDA
  
CITY           SKY/WX    TMP DP  RH WIND       PRES   REMARKS
TALLAHASSEE    FAIR      66  42  41 SW13G21   29.91R                  
PERRY          FAIR      64  46  51 SW9       29.93R                  
LIVE OAK       PTCLDY    64  46  52 S6        29.91R                  
CROSS CITY     FAIR      64  47  55 W12G20    29.95R                  
LAKE CITY      FAIR      63  46  55 W9        29.93R                  
GAINESVILLE    MOCLDY    67  49  52 SW7       29.96R                  
PALATKA        FAIR      63  48  59 SW6       29.95R                  
MAYPORT NAS    FAIR      66  47  50 SW9       29.92R                  
JACKSONVILLE   MOCLDY    63  47  55 SW7       29.91R                  
JAX NAS        FAIR      67  46  47 SW10      29.93R                  
JAX CECIL      CLEAR     63  48  59 S7        29.92R                  
FERNANDINA BEA FAIR      64  47  54 SW10      29.92R                  
ST AUGUSTINE   FAIR      64  46  52 SW3       29.95R                  
PALM COAST     FAIR      63  45  50 W6        29.96R                  

STATION/POSITION SKY/WX   TEMP    WIND        PRES    WAVE   SWELL
                          AIR SEA DIR/SP/G            HT/PER HT/PER
                          (F)     (DEG/KT/KT) (MB)    (FT/S) (FT/S)
SHELL POINT      NOT AVBL
KEATON BEACH               65     260/ 17/ 21 1013.6R
CEDAR KEY                  66     280/ 13/ 20 1014.4R
FERNANDINA                 67 71  230/  5/ 11 1013.6R
30.7N   81.3W                 67                N/A     3/ 4
MAYPORT                    66 71  230/ 13/ 16 1013.1R
31.4N   80.9W              66 67  230/ 17/ 21 1011.9R   4/ 5   2/ 8
ST AUGUSTINE               65 72  230/  7/  9 1014.1R

$$
FLZ040-043>046-052-053-057-058-063-144-210100-
INTERIOR CENTRAL FLORIDA
  
CITY           SKY/WX    TMP DP  RH WIND       PRES   REMARKS
OCALA          LGT RAIN  64  51  62 SW14      29.97R                  
LEESBURG       FAIR      65  47  52 SW8       29.98R                  
SANFORD        FAIR      66  43  43 W14       29.97R                  
ORLANDO EXEC   FAIR      67  41  38 W10       29.97R                  
ORLANDO INTL   FAIR      66  40  38 W8        29.98R                  
KISSIMMEE      FAIR      66  44  45 W3        30.00R                  
WINTER HAVEN   FAIR      66  45  46 W8        30.00R                  
LAKELAND       CLEAR     66  45  45 W7        29.99S                  
BARTOW         FAIR      66  45  45 W6        29.98S                  
SEBRING        FAIR      66  42  41 W8        30.01R                  
OKEECHOBEE     FAIR      64  41  42 W7        30.00R                  

$$
FLZ041-047-054-059-064-141-147-210100-
EAST CENTRAL FLORIDA
  
CITY           SKY/WX    TMP DP  RH WIND       PRES   REMARKS
DAYTONA BEACH  FAIR      64  45  49 W13       29.96R                  
DELAND         FAIR      66  43  42 W5        29.97R                  
NEW SMYRNA BEA CLEAR     66  39  37 W10       29.97R                  
JFK SPACE CTR  FAIR      66  42  42 W10       29.97R                  
TITUSVILLE     CLEAR     70  37  30 W5        29.98R                  
CAPE CANAVERAL FAIR      68  37  32 W15       29.96R                  
PATRICK AFB    FAIR      69  40  35 W15       29.97R                  
MELBOURNE      FAIR      67  44  43 W9        29.97R                  
VERO BEACH     FAIR      68  46  45 W8        29.98R                  
FT PIERCE      FAIR      69  46  43 W9        29.98R                  

STATION/POSITION SKY/WX   TEMP    WIND        PRES    WAVE   SWELL
                          AIR SEA DIR/SP/G            HT/PER HT/PER
                          (F)     (DEG/KT/KT) (MB)    (FT/S) (FT/S)
28.5N   80.2W              71     270/ 16/ 21 1014.9R   4/ 4   2/ 9
28.9N   78.5W              73 78  230/ 12/ 16 1014.5S   7/ 8   5/ 8
TRIDENT PIER               69 77  260/ 12/ 15 1016.2R
28.4N   80.5W                 76                N/A     2/ 8
27.5N   80.2W                 76                N/A     2/ 8

$$
FLZ050-056-061-142-242-148-248-149-249-151-251-155-255-
160-260-210100-
WEST CENTRAL FLORIDA
  
CITY           SKY/WX    TMP DP  RH WIND       PRES   REMARKS
CRYSTAL RIVER  MOCLDY    66  46  48 W10G20    29.96S                  
INVERNESS      LGT RAIN  64  54  68 SW5       29.97S                  
BROOKSVILLE    FAIR      66  49  54 SW9       29.98S                  
CLEARWATER AIR CLOUDY    68  50  52 W8        29.98S                  
ST PETE CLEARW MOCLDY    67  48  50 W13       29.99R                  
TAMPA INTL     CLOUDY    68  49  50 W10       29.99S                  
PLANT CITY     FAIR      66  46  48 W5        30.01S                  
MACDILL AFB    CLOUDY    68  49  51 SW9       29.99S                  
PETER O KNIGHT MOCLDY    68  50  52 W7        30.00R                  
ST PETERSBURG  FAIR      68  50  52 W13       29.97S                  
SARASOTA       FAIR      68  48  48 W13       29.99R                  
VENICE         FAIR      68  50  52 W10G17    30.01F                  

STATION/POSITION SKY/WX   TEMP    WIND        PRES    WAVE   SWELL
                          AIR SEA DIR/SP/G            HT/PER HT/PER
                          (F)     (DEG/KT/KT) (MB)    (FT/S) (FT/S)
27.3N   84.2W                 75                N/A     7/ 8
CLEARWATER BEACH           69 74  230/ 22/ 25 1015.2F
MIDDLE TAMPA BAY           68     280/ 12/ 18 1015.6F
VENICE                     69 76  260/ 11/ 14 1016.1S

$$
FLZ066-069-070-075>078-162-262-165-265-210100-
SOUTHWEST FLORIDA AND KEYS
  
CITY           SKY/WX    TMP DP  RH WIND       PRES   REMARKS
PUNTA GORDA    FAIR      67  47  48 NW12      30.03R                  
FT MYERS       FAIR      67  49  52 NW10      30.01S                  
SOUTHWEST INTL FAIR      67  47  48 W8        30.02R                  
NAPLES         MOCLDY    70  55  59 NW10      30.02S                  
MARCO ISLAND   CLOUDY    70  54  56 NW8       30.03S                  
IMMOKALEE      MOCLDY    68  48  49 W5        30.00S                  
MARATHON       FAIR      77  60  55 NW6       30.01S                  
KEY WEST NAS   MOCLDY    74  61  63 N13       30.02R                  
KEY WEST INTL  FAIR      74  64  71 N12       30.03R                  

STATION/POSITION SKY/WX   TEMP    WIND        PRES    WAVE   SWELL
                          AIR SEA DIR/SP/G            HT/PER HT/PER
                          (F)     (DEG/KT/KT) (MB)    (FT/S) (FT/S)
NAPLES                     70 77  250/ 11/ 14 1016.6R
DRY TORTUGAS               72     350/ 12/ 14 1017.3R
SAND KEY                   73                 1016.7R
SOMBRERO KEY               74                 1015.7R

$$
FLZ067-068-071>074-168-172>174-210100-
SOUTHEAST FLORIDA 
  
CITY           SKY/WX    TMP DP  RH WIND       PRES   REMARKS
W PALM BEACH   FAIR      72  45  37 NW12      29.99R                  
BOCA RATON     PTCLDY    75  54  46 NW20      29.98R                  
FT LAUDER-EXEC FAIR      75  54  47 W13G21    29.98R                  
FT LAUDERDALE  FAIR      75  55  49 W12       29.98R                  
POMPANO BEACH  FAIR      75  54  47 NW20      29.98R                  
PEMBROKE PINES   N/A     74  55  51 W15       30.00R                  
OPA LOCKA      FAIR      75  56  51 W12       29.99R                  
MIAMI          FAIR      75  56  51 W9        29.99R                  
WEST KENDALL   FAIR      71  57  61 W10       30.00R                  
HOMESTEAD      FAIR      73  57  57 W12       29.99R                  

STATION/POSITION SKY/WX   TEMP    WIND        PRES    WAVE   SWELL
                          AIR SEA DIR/SP/G            HT/PER HT/PER
                          (F)     (DEG/KT/KT) (MB)    (FT/S) (FT/S)
PORT EVERGLADES            77     290/ 15/ 20 1014.8R
VIRGINIA KEY               77 81  250/ 11/ 22 1014.6R
LAKE WORTH                 74 77  300/ 12/ 16 1016.2R
SETTLEMENT POINT           76     200/  7/  8 1015.2R

$$